Starlink 32675

operational
NORAD ID: 62208 Int'l Des: 2024-229 Owner: SPXS Country: US Constellation: starlink
LEOCIRCULAR

Über Starlink 32675

Beschreibung wird geladen...

Live-Position

3D-Globus wird geladen...

Nächste Überflüge

Höhenverlauf

Altitude vs Time

uPlot chart will show altitude changes over time

Zweizeiliger Elementsatz

1 62208U 24229S 25303.25553375 .00041421 00000-0 15056-2 0 9996
2 62208 43.0009 287.2955 0001095 282.0819 77.9910 15.27594415 50617
Epoch: 30. Okt. 2025 • Age: 17 hours

Aktueller Status

Höhe 490.3 km
Geschwindigkeit 7.62 km/s
Subsatellitenpunkt -30.41°S, 142.79°W
Startdatum 4. Dez. 2024
Alter 0.9 years
Typ internet

Technische Details

Klassifizierung Payload
Masse 730.00 kg
Trockenmasse 700.00 kg
Gesamtmasse 730.00 kg
Länge 0.30 m
Durchmesser 4.10 m
Spannweite 29.00 m
Form Box + pan
Hersteller SPXS
Bus-Typ Starlink V2M
Phasenstatus In Orbit
Besitzer/Staat SPXS/US

Große Konstellationen

Loading constellations...